Flag for Greece Weather past 2 weeks in Peristeri, Greece

Now
63 °F

Passing clouds.


Feels Like: 63 °F
Forecast: 61 / 71 °F
Wind: 3 mph from North

Location: Elefsis Airport

Current Time: May 27, 2015 at 8:04:16 AM

Latest Report: May 27, 2015 at 7:20 AM


Visibility: N/A

Pressure: 29.68 "Hg

Humidity: 83%

Dew point: 57 °F

Location of PeristeriLocation

Historic Weather in Peristeri — Graph

°F

Peristeri temperature yesterday

Maximum temperature yesterday: 81 °F (at 1:20 PM)
Minimum temperature yesterday: 59 °F (at 6:20 AM)
Average temperature yesterday: 70 °F

Past Weeks' High & Low Weather Summary

 TemperatureHumidityPressure
High86 °F (May 18, 11:20 AM)88% (May 27, 2:20 AM)30.12 "Hg (May 27, 2:20 AM)
Low54 °F (May 14, 4:50 AM)15% (May 24, 2:20 PM)29.68 "Hg (May 27, 3:50 AM)
Average71 °F49%29.90 "Hg
* Reported May 12 6:20 AM — May 27 6:50 AM, Peristeri, Weather by CustomWeather, © 2015

Note: Actual official high and low records may vary slightly from our data, if they occured in-between our weather recording intervals... More about our weather records

Advertising

Peristeri weather history for previous 24 hours

 ConditionsComfort  
Time TempWeatherWind HumidityBarometerVisibility
6:50 AM
Wed, May 27
59 °FPassing clouds.No wind88%29.68 "HgN/A
6:20 AM59 °FPassing clouds.No wind88%29.68 "HgN/A
5:50 AM61 °FPassing clouds.No wind83%29.68 "HgN/A
5:20 AM61 °FPassing clouds.No wind83%29.68 "HgN/A
4:50 AM61 °FPassing clouds.No wind88%29.68 "HgN/A
4:20 AM61 °FPassing clouds.No wind88%29.68 "HgN/A
3:50 AM63 °FPassing clouds.5 mph83%29.68 "HgN/A
2:50 AM63 °FPassing clouds.No wind83%29.71 "HgN/A
2:20 AM63 °FPassing clouds.No wind88%29.74 "HgN/A
1:50 AM64 °FPassing clouds.No wind83%29.74 "HgN/A
1:20 AM66 °FPartly cloudy.No wind83%29.74 "HgN/A
12:50 AM66 °FPartly cloudy.No wind83%29.74 "HgN/A
12:20 AM66 °FPartly cloudy.No wind78%29.74 "HgN/A
11:50 PM
Tue, May 26
66 °FPartly cloudy.No wind83%29.74 "HgN/A
11:20 PM68 °FPartly cloudy.6 mph73%29.74 "HgN/A
10:50 PM68 °FPartly cloudy.No wind73%29.71 "HgN/A
10:20 PM68 °FPartly cloudy.No wind73%29.74 "HgN/A
9:50 PM68 °FPartly cloudy.5 mph73%29.74 "HgN/A
9:20 PM68 °FBroken clouds.No wind73%29.71 "HgN/A
8:50 PM68 °FDrizzle. Broken clouds.5 mph73%29.71 "HgN/A
8:20 PM68 °FBroken clouds.No wind73%29.77 "HgN/A
7:50 PM68 °FBroken clouds.No wind73%29.74 "HgN/A
7:20 PM68 °FBroken clouds.5 mph69%29.74 "HgN/A
6:50 PM70 °FBroken clouds.7 mph57%29.74 "HgN/A
6:20 PM68 °FBroken clouds.10 mph60%29.74 "HgN/A
5:50 PM72 °FBroken clouds.9 mph50%29.77 "HgN/A
5:20 PM72 °FScattered clouds.7 mph50%29.74 "HgN/A
4:50 PM72 °FScattered clouds.8 mph50%29.77 "HgN/A
4:20 PM75 °FScattered clouds.13 mph44%29.77 "HgN/A
3:50 PM77 °FPassing clouds.15 mph36%29.77 "HgN/A
3:20 PM79 °FPassing clouds.13 mph32%29.74 "HgN/A
2:50 PM81 °FPassing clouds.6 mph28%29.77 "HgN/A
2:20 PM81 °FPassing clouds.12 mph28%29.77 "HgN/A
1:50 PM81 °FPassing clouds.7 mph28%29.77 "HgN/A
1:20 PM81 °FPassing clouds.7 mph28%29.77 "HgN/A
12:20 PM79 °FPassing clouds.8 mph24%29.80 "HgN/A
11:50 AM79 °FPassing clouds.8 mph26%29.80 "HgN/A
11:20 AM77 °FPassing clouds.5 mph34%29.80 "HgN/A
10:50 AM77 °FPassing clouds.No wind32%29.80 "HgN/A
10:20 AM75 °FPassing clouds.No wind34%29.80 "HgN/A
9:50 AM75 °FPassing clouds.No wind36%29.80 "HgN/A
9:20 AM73 °FPassing clouds.No wind36%29.80 "HgN/A
8:50 AM70 °FPassing clouds.No wind43%29.80 "HgN/A
8:20 AM68 °FPassing clouds.No wind46%29.80 "HgN/A
Weather by CustomWeather, © 2015

See weather overviewHow to use our weather pages